Weather History for KNHK - December, 2012

Change the Weather History Date:

Sunday, December 2, 2012

  Actual Average Record
Temperature  
Mean Temperature 48 °F -  
Max Temperature 62 °F 54 °F 67 °F (1980)
Min Temperature 33 °F 35 °F 26 °F (1999)
Degree Days  
Heating Degree Days 18    
Moisture  
Dew Point 38 °F    
Average Humidity 84    
Maximum Humidity 100    
Minimum Humidity 60    
Precipitation  
Precipitation 0.00 in - - ()
Sea Level Pressure  
Sea Level Pressure 30.32 in    
Wind  
Wind Speed 3 mph (South)    
Max Wind Speed 15 mph    
Max Gust Speed 22 mph    
Visibility 5 miles    
Events Fog    
Averages and records for this station are not official NWS values.
T = Trace of Precipitation, MM = Missing Value Source: NWS Daily Summary

Daily Weather History Graph

Daily Weather History Graph

Search for Another Location

Airport or City:

Trip Planner

Search our weather history database for the weather conditions in past years. The results will help you decide how hot, cold, wet, or windy it might be!

Date:

Astronomy

Dec. 02, 2012 Rise Set
Actual Time 7:05 AM EST 4:45 PM EST
Civil Twilight 6:35 AM EST 5:14 PM EST
Nautical Twilight 6:02 AM EST 5:47 PM EST
Astronomical Twilight 5:31 AM EST 6:19 PM EST
Moon 8:29 PM EST (12/2) 9:54 AM EST (12/2)
Length of Visible Light 10h 38m
Length of Day
9h 40m
Waning Gibbous, 86% of the Moon is Illuminated
Dec 2
Waning Gibbous
Dec 6
Last Quarter
Dec 13
New
Dec 20
First Quarter
Dec 28
Full

Hourly Weather History & Observations

Time (EST) Temp. Windchill Dew Point Humidity Pressure Visibility Wind Dir Wind Speed Gust Speed Precip Events Conditions
12:23 AM 35.6 °F 32.8 °F 32.0 °F 87% 30.39 in 7.0 mi West 3.5 mph - N/A   Scattered Clouds
12:32 AM 35.6 °F - 33.8 °F 93% 30.39 in 6.0 mi Calm Calm - N/A   Mostly Cloudy
12:52 AM 36.0 °F 33.3 °F 33.1 °F 89% 30.39 in 5.0 mi WSW 3.5 mph - N/A   Overcast
1:13 AM 35.6 °F 32.8 °F 33.8 °F 93% 30.39 in 4.0 mi SW 3.5 mph - N/A   Scattered Clouds
1:52 AM 36.0 °F 33.3 °F 34.0 °F 93% 30.39 in 4.0 mi West 3.5 mph - N/A   Clear
2:52 AM 35.1 °F - 33.1 °F 92% 30.38 in 3.0 mi Calm Calm - N/A   Clear
3:52 AM 34.0 °F - 30.9 °F 89% 30.37 in 3.0 mi Calm Calm - N/A   Clear
4:21 AM 35.6 °F - 32.0 °F 87% 30.37 in 2.5 mi Calm Calm - N/A   Clear
4:29 AM 33.8 °F - 33.8 °F 100% 30.37 in 4.0 mi Calm Calm - N/A   Clear
4:50 AM 33.8 °F - 32.0 °F 93% 30.36 in 3.0 mi Calm Calm - N/A   Scattered Clouds
4:52 AM 34.0 °F - 32.0 °F 92% 30.36 in 3.0 mi Calm Calm - N/A   Scattered Clouds
4:55 AM 33.8 °F - 32.0 °F 93% 30.36 in 2.5 mi Calm Calm - N/A   Mostly Cloudy
4:58 AM 33.8 °F - 32.0 °F 93% 30.36 in 1.2 mi Calm Calm - N/A   Mostly Cloudy
5:01 AM 33.8 °F - 30.2 °F 87% 30.36 in 0.5 mi Calm Calm - N/A Fog Fog
5:09 AM 33.8 °F - 30.2 °F 87% 30.37 in 0.2 mi Calm Calm - N/A Fog Fog
5:25 AM 33.8 °F - 32.0 °F 93% 30.36 in 0.2 mi Calm Calm - N/A Fog Fog
5:31 AM 33.8 °F - 32.0 °F 93% 30.36 in 0.8 mi Calm Calm - N/A   Mist
5:35 AM 33.8 °F - 32.0 °F 93% 30.36 in 1.5 mi Calm Calm - N/A   Mostly Cloudy
5:38 AM 33.8 °F - 32.0 °F 93% 30.36 in 3.0 mi Calm Calm - N/A   Mostly Cloudy
5:49 AM 33.8 °F - 32.0 °F 93% 30.36 in 3.0 mi Calm Calm - N/A   Scattered Clouds
5:52 AM 34.0 °F - 32.0 °F 92% 30.36 in 3.0 mi Calm Calm - N/A   Partly Cloudy
6:02 AM 33.8 °F - 32.0 °F 93% 30.36 in 3.0 mi Calm Calm - N/A   Partly Cloudy
6:47 AM 35.6 °F - 33.8 °F 93% 30.38 in 1.0 mi Calm Calm - N/A   Overcast
6:52 AM 35.1 °F - 33.1 °F 92% 30.38 in 0.1 mi Calm Calm - N/A Fog Fog
7:52 AM 39.9 °F - 39.0 °F 97% 30.38 in 0.1 mi Calm Calm - N/A Fog Fog
8:48 AM 44.6 °F - 42.8 °F 93% 30.37 in 0.5 mi Calm Calm - N/A Fog Fog
8:52 AM 44.1 °F - 42.1 °F 93% 30.38 in 1.5 mi Calm Calm - N/A   Overcast
8:56 AM 44.6 °F 43.1 °F 42.8 °F 93% 30.37 in 2.5 mi SE 3.5 mph - N/A   Mostly Cloudy
9:02 AM 44.6 °F 43.1 °F 42.8 °F 93% 30.37 in 3.0 mi SE 3.5 mph - N/A   Mostly Cloudy
9:52 AM 45.0 °F 43.5 °F 42.1 °F 90% 30.37 in 6.0 mi South 3.5 mph - N/A   Mostly Cloudy
10:52 AM 48.9 °F - 44.1 °F 83% 30.33 in 6.0 mi SE 3.5 mph - N/A   Haze
11:52 AM 51.1 °F - 45.0 °F 80% 30.30 in 9.0 mi East 6.9 mph - N/A   Mostly Cloudy
12:52 PM 57.0 °F - 46.9 °F 69% 30.26 in 10.0 mi South 6.9 mph - N/A   Mostly Cloudy
1:52 PM 59.0 °F - 46.9 °F 64% 30.22 in 10.0 mi South 6.9 mph - N/A   Mostly Cloudy
2:52 PM 62.1 °F - 48.0 °F 60% 30.19 in 10.0 mi SSE 10.4 mph 18.4 mph N/A   Scattered Clouds
3:52 PM 60.1 °F - 48.0 °F 64% 30.19 in 10.0 mi South 5.8 mph - N/A   Mostly Cloudy
4:52 PM 59.0 °F - 48.0 °F 67% 30.17 in 10.0 mi SSE 8.1 mph - N/A   Mostly Cloudy
5:52 PM 59.0 °F - 48.0 °F 67% 30.18 in 10.0 mi South 6.9 mph - N/A   Overcast
6:52 PM 57.9 °F - 48.0 °F 70% 30.19 in 10.0 mi South 5.8 mph - N/A   Partly Cloudy
7:52 PM 59.0 °F - 48.0 °F 67% 30.19 in 10.0 mi SSW 9.2 mph - N/A   Overcast
8:52 PM 59.0 °F - 48.0 °F 67% 30.17 in 10.0 mi SSW 12.7 mph 20.7 mph N/A   Overcast
9:52 PM 60.1 °F - 48.0 °F 64% 30.17 in 10.0 mi SSW 15.0 mph 20.7 mph N/A   Overcast
10:52 PM 60.1 °F - 48.0 °F 64% 30.17 in 10.0 mi SSW 15.0 mph 21.9 mph N/A   Overcast
11:52 PM 60.1 °F - 48.0 °F 64% 30.17 in 10.0 mi SSW 13.8 mph - N/A   Overcast